TRANSIT 10 DEB, 24705

Orbit data source: Space-Track

TRANSIT 10 DEB, 24705 is space debris in LEO originally from a launch on Wed, 22 Dec 1965 UTC launched from the Air Force Western Test Range (AFWTR). Debris objects in space refer to the collection of defunct objects orbiting the Earth. Examples of debris include non-operational satellites, rocket bodies, and fragments generated from explosions, collisions, or faulty payload assembly.

Loading next visibility...
Identifier
24705, 1965-109E
Orbit
LEO
Country
Flag of USUS
Related business
Manufacturer
Unknown
Mission
Spacecraft
Bus & Motor
Unknown
Mass
Unknown
Launch date (UTC)
1965-12-22 (61 years ago)
Launch vehicle
Unknown
Launch site
Air Force Western Test Range (AFWTR)
Object type
Payload
Rocket body
Debris
Shape & HBR
Unknown shape, 0.2 m
Radar Cross Section
Medium (>0.1 m² and <1 m²)

Expand to show TLE details & history
Last TLE update: 7 hours ago

TLE from 7 hours ago
0 TRANSIT 10 DEB
1 24705U 65109E   26178.29718161  .00002656  00000-0  13776-2 0  9993
2 24705  89.0731 197.4397 0079322  39.0920 335.5923 14.12946583502273
Epoch: 2026-06-27T07:07Z
TLE epoch observation values (Epoch: 2026-06-27T07:07:56.491Z)
Latitude
14.27232°
Longitude
175.27552°
Altitude
799.484 km
Speed
7.482 km/s
True Right ascension
13h 10m 41s
True Declination
14° 11' 27"
Sunlit
Object was in daylight at epoch
Visualization orbit readout
Latitude
Unknown
Longitude
Unknown
Altitude
Unknown
Speed
Unknown
Apparent Right ascension
Unknown
Apparent Declination
Unknown
Sunlit
N/A
Visualization observer readout
Local Sidereal Time
01:57:15
Azimuth
Unknown
Elevation
Unknown
Doppler factor
Unknown
Orbital elements
Apogee altitude
903.572 km
Perigee altitude
788.961 km
Semi-major axis
7,224.404 km
Eccentricity
0.00793
Inclination
89.0731°
RAAN
197.4397°
Arg. of periapsis
39.092°
True anomaly
335.21327°
Mean anomaly
335.5923°
Eccentric anomaly
335.40313°
Mean motion
3.5346 °/min
Orbital period
101.85 mins
BSTAR
0.0013776
Loading maneuver chart data...
Computing Atmospheric mass density...
Loading historical data...
Loading historical data...
Loading historical data...
Loading historical data...
Loading historical data...
Loading historical data...
Loading historical data...

Documentation

Showing up to 5 results
|